Location: Diebersbach
(48.5163°N, 8.0558°E)
Time: 09:53:25
(UTC+00:00)

Cosmos 1437 Rocket - Pass Details

Date: 20 June 2021
Orbit: 500 x 567 km, 81.2° (Epoch: 27 July)

Event Time Altitude Azimuth Distance (km) Brightness Sun altitude
Rises 01:14:21 0° 339° (NNW) 2,678 7.0 -14.3°
Reaches altitude 10° 01:16:43 10° 327° (NNW) 1,771 5.8 -14.1°
Maximum altitude 01:20:03 28° 268° (W) 994 3.9 -13.9°
Enters shadow 01:21:30 22° 231° (SW) 1,171 4.0 -13.8°
